Location: Felsheim
(48.7267°N, 10.7386°E)
Time: 00:03:51
(UTC+00:00)

CZ-4C R/B - Pass Details

Date: 09 April 2020
Orbit: 637 x 1365 km, 63.4° (Epoch: 04 June)

Event Time Altitude Azimuth Distance (km) Brightness Sun altitude
Rises 19:01:11 0° 312° (NW) 3,580 7.1 -10.3°
Reaches altitude 10° 19:03:55 10° 323° (NW) 2,750 5.9 -10.7°
Maximum altitude 19:09:39 30° 23° (NNE) 1,874 4.0 -11.6°
Drops below altitude 10° 19:16:14 10° 83° (E) 3,194 4.7 -12.5°
Enters shadow 19:16:36 - 84° (E) 3,304 4.8 -12.6°
